Find Starlink 11742

NORAD ID: 64377 Int'l Des: 2025-127 Owner: SPXS Country: US Constellation: starlink operational
別名: STARLINK-11742 [DTC] celestrak
LEOCIRCULAR

現在のビュー

3D地球を読み込み中...

About Starlink 11742

Starlink 11742 (NORAD 64377) is a starlink constellation satellite (v2 mini d2c) launched Jun 13, 2025 by SPXS of US. It operates in LEO, CIRCULAR orbit with a mass of 960.00 kg.

次回通過

Passes for default location (London). Set your location on the main map for personalized predictions.

高度履歴

Loading altitude history...

軌道要素

1 64377U 25127H 26237.78041977 .00206821 00000-0 15675-2 0 9992
2 64377 43.0007 145.5202 0002214 234.0409 126.0254 15.70961620 70096
Epoch: Aug 25, 2026 • Age: 21 hours

現在のステータス

高度 354.1 km
遠地点 / 近地点 N/A
速度 7.70 km/s
衛星直下点 1.87°N, 113.74°E
打ち上げ日 Jun 13, 2025
運用期間 1.1 years
タイプ internet

技術仕様

分類 Payload
質量 960.00 kg
乾燥質量 910.00 kg
総質量 960.00 kg
長さ 0.30 m
直径 4.10 m
スパン 29.00 m
形状 Box + pan
製造者 SPXS
バスタイプ Starlink V2MD
フェーズステータス In Orbit
所有者/国 SPXS/US

Most Searched